Probability
0 0 0 0 0 0 0 0 0 0 0 0 0 0 0 0 0 0 0 0 0 0 0 0 0 0 0 0 0 0 0 0 0 0 0 0 0 0 0 0 0 0 0
0 0 0 0 0 0 0 0 0 0 0 0 0 0 0 0 0 0 0 0 0 0 0 0 0 0 0 0 0 0 0 0 0 0 0 0 0 0 0 0 0 0 0
0 0 0 0 0 0 0 0 0 0 0 0 0 0 0 0 0 0 0 0 0 0 0 0 0 0 0 0 0 0 0 0 0 0 0 0 0 0 0 0 0 0 0
0 0 0 0 0 0 0 0 0 0 0 0 0 0 0 0 0 0 0 0 0 0 0 0 0 0 0 0 0 0 0 0 0 0 0 0 0 0 0 0 0 0 0
0 0 0 0 0 0 0 0 0 0 0 0 0 0 0 0 0 0 0 0 0 0 0 0 0 0 0 0 0 0 0 0 0 0 0 0 0 0 0 0 0 0 0
0 0 0 0 0 0 0 0 0 0 0 0 0 0 0 0 0 0 0 0 0 0 0 0 0 0 0 0 0 0 0 0 0 0 0 0 0 0 0 0 0 0 0
0 0 0 0 0 0 0 0 0 0 0 0 0 0 0 0 0 0 0 0 0 0 0 0 0 0 0 0 0 0 0 0 0 0 0 0 0 0 0 0 0 0 0
0 0 0 0 0 0 0 0 0 0 0 0 0 0 0 0 0 0 0 0 0 0 0 0 0 0 0 0 0 0 0 0 0 0 0 0 0 0 0 0 0 0 0
0 0 0 0 0 0 0 0 0 0 0 0 0 0 0 0 0 0 0 0 0 0 0 0 0 0 0 0 0 0 0 0 0 0 0 0 0 0 0 0 0 0 0
0 0 0 0 0 0 0 0 0 0 0 0 0 0 0 0 0 0 0 0 0 0 0 0 0 0 0 0 0 0 0 0 0 0 0 0 0 0 0 0 0 0 0
0 0 0 0 0 0 0 0 0 0 0 0 0 0 0 0 0 0 0 0 0 0 0 0 0 0 0 0 0 0 0 0 0 0 0 0 0 0 0 0 0 0 0
0 0 0 0 0 0 0 0 0 0 0 0 0 0 0 0 0 0 0 0 0 0 0 0 0 0 0 0 0 0 0 0 0 0 0 0 0 0 0 0 0 0 0
0 0 0 0 0 0 0 0 0 0 0 0 0 0 0 0 0 0 0 0 0 0 0 0 0 0 0 0 0 0 0 0 0 0 0 0 0 0 0 0 0 0 0
0 0 0 0 0 0 0 0 0 0 0 0 0 0 0 0 0 0 0 0 0 0 0 0 0 0 0 0 0 0 0 0 0 0 0 0 0 0 0 0 0 0 0
0 0 0 0 1 0 0 0 0 0 0 0 0 0 0 0 0 0 0 0 0 0 0 0 0 0 0 0 0 0 0 0 0 0 0 0 0 0 0 0 0 0 0
0 0 0 0 0 0 0 0 0 0 0 0 0 0 0 0 0 0 0 0 0 0 0 0 0 0 0 0 0 0 0 0 0 0 0 0 0 0 0 0 0 0 0
0 0 0 0 0 0 0 0 0 0 0 0 0 0 0 0 0 0 0 0 0 0 0 0 0 0 0 0 0 0 0 0 0 0 0 0 0 0 0 0 0 0 0
0 0 0 0 0 0 0 0 0 0 0 0 0 0 0 0 0 0 0 0 0 0 0 0 0 0 0 0 0 0 0 0 0 0 0 0 0 0 0 0 0 0 0
0 0 1 1 0 0 0 0 0 0 0 0 0 0 0 0 0 0 0 0 0 0 0 0 0 0 0 0 0 0 0 0 0 0 0 0 0 0 0 0 0 0 0
0 0 1 2 1 1 0 0 1 0 0 0 0 0 0 0 0 0 0 0 0 0 0 0 0 0 0 0 0 0 0 0 0 0 0 0 0 0 0 0 0 0 0
0 0 1 2 2 2 1 1 1 0 0 0 0 0 0 0 0 0 0 0 0 0 0 0 0 0 0 0 0 0 0 0 0 0 0 0 0 0 0 0 0 0 0
0 0 0 1 2 2 2 1 1 0 0 1 0 0 0 0 0 0 0 0 0 0 0 0 0 0 0 0 0 0 0 0 0 0 0 0 0 0 0 0 0 0 0
0 0 0 0 1 1 2 2 1 0 1 1 0 0 0 0 0 0 0 0 0 0 0 0 0 0 0 0 0 0 0 0 0 0 0 0 0 0 0 0 0 0 0
0 0 0 0 0 0 1 2 1 1 1 1 1 2 1 1 0 0 0 0 0 0 0 0 0 0 0 0 0 0 0 0 0 0 0 0 0 0 0 0 0 0 0
1 0 1 2 1 0 0 1 1 2 2 2 2 3 3 2 1 0 0 0 0 0 0 0 0 0 0 0 0 0 0 0 0 0 0 0 0 0 0 0 0 0 0
1 1 1 3 3 1 0 0 1 1 1 2 3 3 3 2 1 0 0 0 0 0 0 1 1 1 0 0 0 0 0 0 0 0 0 0 0 0 0 0 0 0 0
Wind_Speed
11 15 16 16 16 15 14 14 13 13 13 13 13 12 12 12 11 11 11 12 13 13 13 13 14 14 14 13 13 13 13 13 12 12 12 13 12 12 12 10 8 10 12
14 16 16 15 16 15 14 14 14 13 13 12 12 12 12 12 12 12 11 12 12 12 13 13 13 13 13 12 12 12 12 11 11 11 9 10 11 11 11 10 9 8 10
15 16 17 14 15 15 14 14 14 13 13 12 12 12 12 12 11 11 11 12 12 12 12 12 12 12 12 11 11 11 11 11 10 7 4 7 9 9 10 9 9 9 9
15 15 15 15 15 15 15 14 13 13 12 12 12 12 11 11 11 11 11 11 11 11 11 11 11 11 10 10 10 10 10 9 8 3 4 6 6 8 8 8 8 8 7
14 14 15 14 15 15 15 14 13 12 12 12 12 11 11 11 11 10 10 10 10 10 10 10 10 10 9 9 9 9 9 8 4 2 5 5 5 7 6 6 6 6 6
14 13 15 13 15 15 14 14 13 12 12 11 11 11 11 11 10 10 9 9 9 8 9 9 9 9 8 8 8 8 7 5 2 3 4 3 4 5 4 4 4 4 3
13 12 14 12 13 13 13 13 13 12 11 11 11 11 11 10 10 10 9 8 8 7 8 8 8 7 7 6 6 6 5 2 1 2 2 2 3 3 2 2 2 2 2
12 12 13 12 11 12 12 11 11 11 11 10 10 10 10 10 10 9 9 8 7 7 7 7 7 6 6 5 5 5 4 1 1 1 1 1 2 1 1 1 1 1 1
11 11 11 13 12 11 10 10 10 10 10 9 9 9 8 8 8 8 8 7 7 7 6 6 6 5 5 4 4 4 3 1 3 0 1 0 1 3 2 2 2 3 3
9 10 10 11 12 12 11 10 10 9 9 9 8 8 8 7 7 6 7 7 7 6 6 6 5 5 4 4 4 3 2 4 3 2 2 1 2 5 4 4 4 4 4
9 9 10 10 10 10 10 10 10 9 9 9 8 8 8 7 8 7 7 6 6 6 5 6 5 4 4 4 4 3 4 3 3 3 3 2 5 7 6 6 6 6 6
11 11 10 10 10 10 8 9 9 8 9 9 8 9 7 6 5 5 6 5 5 5 5 5 5 5 5 4 4 5 4 4 4 3 3 3 7 7 8 8 8 8 8
12 11 10 10 10 10 7 7 6 6 7 8 9 9 7 6 5 5 4 5 6 6 6 5 6 5 4 3 3 4 4 4 3 3 3 4 8 9 9 9 9 9 9
11 12 11 11 10 10 8 7 7 6 6 6 8 9 7 5 5 5 4 5 5 4 5 5 4 5 5 5 5 5 6 5 4 4 3 5 8 9 10 10 10 10 10
11 12 12 11 11 10 9 7 7 7 7 7 7 8 9 6 6 6 5 5 5 5 5 5 5 6 6 6 6 6 7 7 7 6 4 5 8 10 11 12 12 12 12
11 11 11 12 12 11 9 8 7 7 7 7 7 9 10 7 7 6 6 6 6 6 6 6 7 6 5 5 6 7 7 8 7 7 7 6 8 10 12 12 12 12 12
11 10 11 11 11 12 11 10 7 7 7 7 7 9 10 9 9 7 6 6 6 6 7 6 7 6 5 6 7 8 7 7 8 8 8 7 6 8 10 12 12 12 12
10 10 10 8 10 11 10 9 7 7 8 7 7 7 10 11 10 8 7 7 7 6 6 6 6 6 6 6 6 6 6 6 8 9 8 8 7 6 6 9 11 12 12
9 9 9 10 10 10 10 8 8 7 7 7 7 7 8 10 10 9 7 7 7 6 6 6 6 6 6 7 6 6 7 7 8 8 9 9 8 7 6 5 7 9 11
8 8 9 9 10 10 8 7 7 8 7 7 7 7 9 8 10 9 8 9 8 7 7 7 8 7 6 6 5 6 7 8 8 8 9 8 7 7 7 7 6 6 9
6 7 8 9 9 8 7 7 7 8 7 7 7 8 9 9 9 9 8 8 8 8 8 9 7 8 7 5 5 6 7 8 8 7 7 6 7 7 7 7 6 5 4
4 5 7 8 8 8 7 6 5 6 6 7 6 7 9 9 9 8 10 8 8 8 9 9 8 6 5 5 5 4 5 5 5 5 6 6 6 5 6 7 7 6 5
3 4 5 6 7 7 7 6 4 4 5 6 7 6 7 8 9 9 9 9 8 9 8 9 9 10 7 6 7 6 5 5 3 4 5 5 6 5 5 5 6 6 6
3 3 4 4 5 5 6 6 8 7 7 8 6 5 6 7 8 8 8 9 9 8 8 8 8 8 9 7 6 7 7 5 5 4 4 4 5 6 5 4 5 5 5
3 2 2 2 2 3 4 6 8 8 7 5 5 6 6 6 7 8 8 8 8 7 8 8 8 8 8 8 6 5 7 7 8 7 8 6 5 5 5 5 4 4 4
3 3 3 2 1 2 2 4 6 7 7 6 6 5 5 5 5 7 7 7 7 7 8 8 8 9 8 9 8 6 6 6 6 7 8 8 7 5 5 4 4 3 3
Wind_Direction
160 157 153 155 151 148 146 142 141 140 138 136 135 132 130 128 125 120 116 112 110 108 105 102 100 96 94 93 91 89 85 82 79 78 78 80 80 80 76 68 68 74 69
153 155 151 156 153 150 148 145 144 144 142 140 137 135 132 128 124 120 117 115 111 110 109 106 102 98 97 95 92 91 88 85 80 76 79 88 80 77 77 69 60 70 71
151 153 155 156 154 152 150 148 146 147 147 144 140 138 135 132 128 125 122 119 116 113 112 110 106 103 100 98 96 95 92 89 83 78 87 90 86 76 76 74 70 71 70
152 155 158 152 154 153 153 152 151 152 150 147 145 142 140 137 134 129 127 125 121 119 118 114 110 108 104 103 100 98 95 92 86 79 84 78 82 77 73 72 69 67 65
154 157 151 153 156 156 156 156 155 154 152 151 150 148 145 141 139 135 132 129 126 125 124 121 116 113 110 108 106 102 100 97 97 98 81 78 77 75 70 69 68 62 58
156 158 153 158 158 159 160 161 161 158 156 155 154 152 150 148 143 140 136 132 130 129 129 127 123 118 118 116 114 110 106 108 155 88 80 75 76 76 70 73 72 63 54
157 160 159 160 160 161 163 164 164 162 159 158 156 153 152 151 148 146 144 140 137 135 134 132 132 129 126 125 122 119 115 121 79 78 70 68 66 57 57 71 71 58 35
158 160 161 158 160 162 165 166 167 165 163 161 160 157 158 157 155 153 152 150 149 148 145 144 144 140 136 134 131 129 131 197 155 90 67 66 49 351 356 345 325 308 313
161 165 167 169 169 167 168 168 168 167 165 164 160 157 155 156 157 158 157 158 160 161 158 154 153 151 150 147 145 141 140 238 260 249 278 304 7 294 284 272 274 281 280
166 172 174 176 178 178 177 171 170 171 169 166 161 156 154 156 160 161 170 168 172 173 170 167 167 168 170 166 162 157 174 230 249 253 259 284 292 281 277 272 270 270 271
178 180 180 182 184 184 183 175 177 174 174 172 170 163 170 184 183 179 183 174 181 182 182 182 181 182 180 179 182 191 220 245 259 266 267 299 277 274 273 273 272 272 269
186 188 187 188 188 187 185 182 188 187 185 192 189 184 192 195 193 193 167 180 187 189 194 196 193 196 216 212 193 209 237 253 258 259 262 268 272 273 271 271 272 272 272
190 190 194 193 191 191 188 190 191 192 193 198 197 195 196 196 192 199 190 187 198 202 209 199 207 219 226 236 242 240 252 258 258 262 258 249 269 273 273 271 271 271 273
194 196 197 196 195 196 195 195 197 196 196 199 199 200 199 199 202 202 206 205 206 208 214 217 220 225 233 238 244 249 253 254 258 264 266 247 262 269 272 272 272 271 271
200 200 200 200 199 198 199 202 202 203 203 203 203 203 206 207 208 207 209 210 213 215 216 221 224 228 234 240 243 248 253 257 260 260 258 236 249 262 269 272 273 273 272
207 205 202 204 205 203 203 204 207 207 206 208 207 208 209 213 213 212 212 214 218 220 223 227 230 233 237 240 246 248 253 257 256 257 261 252 237 250 260 266 269 272 273
210 210 208 208 208 208 209 208 211 211 209 211 212 213 212 215 217 215 217 218 221 222 225 230 233 236 241 243 248 250 252 255 258 258 260 264 257 238 244 257 263 268 272
215 213 211 208 210 211 212 212 211 214 212 215 215 215 216 217 218 217 221 223 224 223 223 226 230 233 238 244 251 253 251 254 257 260 261 259 259 258 243 241 255 263 268
221 217 214 210 211 212 213 214 214 215 217 217 216 217 218 219 219 220 224 226 224 223 224 225 229 233 242 246 250 258 260 261 262 261 259 258 256 256 259 245 240 253 263
225 224 221 216 215 211 210 214 216 219 221 221 220 220 220 220 220 222 226 227 222 224 227 226 231 233 242 250 256 263 265 264 261 259 257 254 252 251 252 258 254 243 244
225 224 223 221 218 212 208 211 215 219 220 222 224 227 223 222 221 223 226 226 221 223 227 228 229 234 236 236 250 264 263 255 254 252 250 251 249 248 249 252 255 259 251
236 233 229 225 222 219 220 218 223 223 223 225 225 227 226 224 222 222 226 227 222 224 227 227 225 229 230 218 231 254 270 261 237 241 244 246 252 250 249 251 253 252 258
250 254 248 238 230 226 227 224 221 223 224 220 224 226 226 225 224 222 226 226 225 224 227 226 224 227 232 224 223 233 251 262 291 238 236 244 248 251 255 255 252 251 253
282 271 263 259 248 236 224 223 222 223 230 230 227 224 223 220 224 226 228 229 227 225 228 226 226 229 232 233 225 231 246 268 269 278 248 241 248 254 259 256 255 255 255
317 311 287 276 273 262 237 232 232 236 241 244 235 225 222 221 224 226 228 231 232 228 228 227 224 226 228 234 231 226 234 243 247 257 270 268 259 251 254 254 256 258 255
359 358 346 352 342 318 280 252 240 240 242 243 244 240 231 226 225 227 229 230 233 232 230 230 227 226 226 231 233 229 227 231 234 239 253 265 270 266 260 248 252 257 262